User: anonymous   Login
Location: Bothwell
(42.3833°S, 147.0000°E)
Time: 05:06:43
(UTC+10:00)
Language:

UWE-3 - Orbit

View from above orbital plane
View from above orbital plane
View from above satellite
View from above satellite

Ground track
Ground track

The orbit data is extracted from the following two-line orbital elements,

1 39446U 13066AG  22266.86832780  .00001532  00000-0  20186-3 0  9993
2 39446  97.6961 226.7452 0069553 127.5423 233.2137 14.79830374475605
Epoch (UTC): 23 September 2022 20:50:23
Eccentricity: 0.0069553
inclination: 97.6961°
perigee height: 581 km
apogee height: 678 km
right ascension of ascending node: 226.7452°
argument of perigee: 127.5423°
revolutions per day: 14.79830374
mean anomaly at epoch: 233.2137°
orbit number at epoch: 47560

The dashed part of the orbit path shows where the satellite is in the earth's shadow,  

DLR